N3WKE Weather Reports


Display with metric or nautical units.
time (UTC)temp
F
wind
direction
speed
MPH
gust
MPH
rain 1hr
in
rain 24hr
in
rain mn
in
humidity
%
barometer
mb
20260505023039 66 219 0.0 6.0 0.00 0.00 0.00 54 1009.0
20260505021552 67 241 0.0 4.0 0.00 0.00 0.00 53 1009.1
20260505020029 67 224 0.0 0.0 0.00 0.00 0.00 53 1009.0
20260505014558 67 232 0.0 1.0 0.00 0.00 0.00 54 1008.9
20260505013028 67 217 0.0 2.0 0.00 0.00 0.00 54 1008.7
20260505011626 67 215 0.0 1.0 0.00 0.00 0.00 54 1008.7
20260505010039 67 178 0.0 0.0 0.00 0.00 0.00 54 1008.6
20260505004548 67 172 0.0 1.0 0.00 0.00 0.00 53 1008.5
20260505003040 68 171 0.0 0.0 0.00 0.00 0.00 52 1008.5
20260505001547 68 171 0.0 0.0 0.00 0.00 0.00 51 1008.4
20260505000052 68 157 0.0 0.0 0.00 0.00 0.00 49 1008.3
20260504234549 69 171 0.0 0.0 0.00 0.00 0.00 48 1008.3
20260504233046 70 153 0.0 2.0 0.00 0.00 0.00 47 1008.3
20260504231555 71 146 0.0 3.0 0.00 0.00 0.00 47 1008.4
20260504230033 71 153 0.0 7.0 0.00 0.00 0.00 46 1008.4
20260504224559 72 221 0.0 2.0 0.00 0.00 0.00 45 1008.4
20260504223030 73 222 0.0 5.0 0.00 0.00 0.00 44 1008.1
20260504221502 74 131 0.0 9.0 0.00 0.00 0.00 43 1008.1
20260504220044 75 159 0.0 10.0 0.00 0.00 0.00 41 1008.1
20260504214555 77 248 3.0 15.0 0.00 0.00 0.00 36 1008.2
20260504213043 77 223 1.0 12.0 0.00 0.00 0.00 35 1008.2
20260504211659 76 234 0.0 15.0 0.00 0.00 0.00 35 1008.1
20260504210042 76 272 0.0 10.0 0.00 0.00 0.00 36 1008.2
20260504204552 76 166 0.0 7.0 0.00 0.00 0.00 35 1008.4
20260504203037 75 111 1.0 13.0 0.00 0.00 0.00 37 1008.6
20260504201606 75 182 0.0 15.0 0.00 0.00 0.00 38 1008.6
20260504200029 76 259 0.0 9.0 0.00 0.00 0.00 37 1008.8
20260504194600 75 236 0.0 10.0 0.00 0.00 0.00 38 1009.1
20260504193031 74 263 0.0 8.0 0.00 0.00 0.00 38 1009.3
20260504191501 74 272 4.0 17.0 0.00 0.00 0.00 37 1009.8
20260504190039 74 234 2.0 12.0 0.00 0.00 0.00 36 1009.9
20260504184602 73 208 0.0 13.0 0.00 0.00 0.00 37 1010.2
20260504183042 73 259 1.0 13.0 0.00 0.00 0.00 36 1010.3
20260504181653 73 154 0.0 9.0 0.00 0.00 0.00 36 1010.4
20260504180027 73 261 2.0 10.0 0.00 0.00 0.00 36 1010.7
20260504174555 72 223 0.0 11.0 0.00 0.00 0.00 37 1010.8
20260504173044 72 245 1.0 11.0 0.00 0.00 0.00 37 1011.0
20260504171602 72 266 0.0 11.0 0.00 0.00 0.00 37 1011.2
20260504081551 48 259 0.0 0.0 0.00 0.00 0.00 69 1014.1
20260504044546 48 264 0.0 0.0 0.00 0.00 0.00 63 1014.4
20260504043036 48 260 0.0 0.0 0.00 0.00 0.00 63 1014.3
20260504041545 48 258 0.0 2.0 0.00 0.00 0.00 64 1014.3
20260504040046 49 256 0.0 0.0 0.00 0.00 0.00 63 1014.3
20260504034550 49 260 0.0 0.0 0.00 0.00 0.00 62 1014.1
20260504033051 50 263 0.0 0.0 0.00 0.00 0.00 60 1013.9
20260504031602 50 263 0.0 0.0 0.00 0.00 0.00 60 1013.8
20260504030025 51 265 0.0 0.0 0.00 0.00 0.00 58 1013.8
20260504024600 51 265 0.0 0.0 0.00 0.00 0.00 58 1013.7